User: anonymous   Login
Location: Ertinghausen
(51.6624°N, 9.7874°E)
Time: 08:39:53
(UTC+00:00)
Language:

SL-08 R/B - Orbit

View from above orbital plane
View from above orbital plane
View from above satellite
View from above satellite

Ground track
Ground track

The orbit data is extracted from the following two-line orbital elements,

1 28381U 04028B   24196.82738863  .00000000  00000-0 -14944-4 0  9990
2 28381  82.9560 213.6529 0031110 336.3460 197.1617 13.78471665  4995
Epoch (UTC): 14 July 2024 19:51:26
Eccentricity: 0.0031110
inclination: 82.9560°
perigee height: 946 km
apogee height: 992 km
right ascension of ascending node: 213.6529°
argument of perigee: 336.3460°
revolutions per day: 13.78471665
mean anomaly at epoch: 197.1617°
orbit number at epoch: 499

The dashed part of the orbit path shows where the satellite is in the earth's shadow,  

DLR